Stündliche Wetter Judeida

Heute, 8 März, Montag

Zeit Temperatur Niederschläge Wind Luftdruck Luftfeuchtigkeit
00:00 +14°C° 0 mm 3 m/S 755 mmHg 84%
01:00 +14°C° 0 mm 2 m/S 754 mmHg 83%
02:00 +14°C° 0 mm 2 m/S 754 mmHg 82%
03:00 +14°C° 0 mm 2 m/S 754 mmHg 82%
04:00 +14°C° 0 mm 2 m/S 754 mmHg 82%
05:00 +14°C° 0 mm 2 m/S 754 mmHg 81%
06:00 +15°C° 0 mm 2 m/S 754 mmHg 80%
07:00 +14°C° 0 mm 3 m/S 754 mmHg 78%
08:00 +16°C° 0 mm 3 m/S 755 mmHg 77%
09:00 +16°C° 0 mm 3 m/S 755 mmHg 74%
10:00 +17°C° 0 mm 4 m/S 755 mmHg 72%
11:00 +17°C° 0 mm 4 m/S 755 mmHg 70%
12:00 +18°C° 0 mm 4 m/S 755 mmHg 70%
13:00 +17°C° 0 mm 5 m/S 754 mmHg 71%
14:00 +17°C° 0 mm 5 m/S 754 mmHg 72%
15:00 +17°C° 0 mm 5 m/S 754 mmHg 75%
16:00 +17°C° 0 mm 4 m/S 754 mmHg 78%
17:00 +16°C° 0 mm 3 m/S 754 mmHg 81%
18:00 +14°C° 0 mm 3 m/S 754 mmHg 83%
19:00 +14°C° 0 mm 2 m/S 754 mmHg 86%
20:00 +14°C° 0 mm 2 m/S 755 mmHg 89%
21:00 +13°C° 0 mm 2 m/S 755 mmHg 89%
22:00 +13°C° 0 mm 1 m/S 755 mmHg 89%
23:00 +13°C° 0 mm 1 m/S 755 mmHg 89%

Morgen, 9 März, Dienstag

Zeit Temperatur Niederschläge Wind Luftdruck Luftfeuchtigkeit
00:00 +12°C° 0 mm 1 m/S 755 mmHg 89%
01:00 +12°C° 0 mm 1 m/S 754 mmHg 90%
02:00 +12°C° 0 mm 1 m/S 754 mmHg 90%
03:00 +12°C° 0 mm 2 m/S 754 mmHg 90%
04:00 +12°C° 0 mm 2 m/S 754 mmHg 90%
05:00 +10°C° 0 mm 2 m/S 754 mmHg 90%
06:00 +13°C° 0 mm 2 m/S 754 mmHg 85%
07:00 +14°C° 0 mm 2 m/S 755 mmHg 80%
08:00 +16°C° 0 mm 2 m/S 755 mmHg 75%
09:00 +17°C° 0 mm 2 m/S 755 mmHg 67%
10:00 +20°C° 0 mm 1 m/S 755 mmHg 59%
11:00 +21°C° 0 mm 1 m/S 755 mmHg 52%
12:00 +21°C° 0 mm 2 m/S 754 mmHg 52%
13:00 +21°C° 0 mm 2 m/S 754 mmHg 52%
14:00 +23°C° 0 mm 2 m/S 753 mmHg 52%
15:00 +21°C° 0 mm 2 m/S 753 mmHg 57%
16:00 +20°C° 0 mm 2 m/S 753 mmHg 63%
17:00 +19°C° 0 mm 3 m/S 753 mmHg 68%
18:00 +19°C° 0 mm 3 m/S 753 mmHg 65%
19:00 +18°C° 0 mm 3 m/S 753 mmHg 61%
20:00 +18°C° 0 mm 3 m/S 753 mmHg 57%
21:00 +18°C° 0 mm 3 m/S 753 mmHg 57%
22:00 +18°C° 0 mm 3 m/S 753 mmHg 57%
23:00 +18°C° 0 mm 3 m/S 753 mmHg 56%

übermorgen, 10 März, Mittwoch

Zeit Temperatur Niederschläge Wind Luftdruck Luftfeuchtigkeit
00:00 +17°C° 0 mm 2 m/S 753 mmHg 56%
01:00 +17°C° 0 mm 2 m/S 752 mmHg 57%
02:00 +16°C° 0 mm 2 m/S 752 mmHg 57%
03:00 +17°C° 0 mm 2 m/S 752 mmHg 55%
04:00 +17°C° 0 mm 2 m/S 752 mmHg 54%
05:00 +17°C° 0 mm 3 m/S 752 mmHg 52%
06:00 +18°C° 0 mm 4 m/S 752 mmHg 52%
07:00 +19°C° 0 mm 4 m/S 752 mmHg 52%
08:00 +19°C° 0 mm 5 m/S 752 mmHg 52%
09:00 +21°C° 0 mm 5 m/S 752 mmHg 50%
10:00 +23°C° 0 mm 5 m/S 751 mmHg 48%
11:00 +25°C° 0 mm 5 m/S 751 mmHg 45%
12:00 +26°C° 0 mm 5 m/S 751 mmHg 43%
13:00 +27°C° 0 mm 4 m/S 750 mmHg 40%
14:00 +28°C° 0 mm 4 m/S 749 mmHg 37%
15:00 +26°C° 0 mm 3 m/S 749 mmHg 41%
16:00 +24°C° 0 mm 3 m/S 749 mmHg 46%
17:00 +21°C° 0 mm 3 m/S 749 mmHg 50%
18:00 +20°C° 0 mm 3 m/S 749 mmHg 47%
19:00 +19°C° 0 mm 2 m/S 749 mmHg 44%
20:00 +18°C° 0 mm 2 m/S 749 mmHg 41%
21:00 +17°C° 0 mm 3 m/S 749 mmHg 46%
22:00 +17°C° 0 mm 3 m/S 749 mmHg 52%
23:00 +16°C° 0 mm 3 m/S 749 mmHg 57%

11 März, Donnerstag

Zeit Temperatur Niederschläge Wind Luftdruck Luftfeuchtigkeit
00:00 +16°C° 0 mm 3 m/S 749 mmHg 68%
01:00 +14°C° 0 mm 3 m/S 749 mmHg 79%
02:00 +14°C° 0 mm 3 m/S 749 mmHg 89%
03:00 +14°C° 0 mm 3 m/S 750 mmHg 91%
04:00 +14°C° 0 mm 3 m/S 750 mmHg 93%
05:00 +15°C° 0 mm 2 m/S 750 mmHg 94%
06:00 +16°C° 0 mm 2 m/S 751 mmHg 91%
07:00 +17°C° 0 mm 2 m/S 751 mmHg 87%
08:00 +18°C° 0 mm 2 m/S 751 mmHg 83%
09:00 +18°C° 0 mm 3 m/S 751 mmHg 80%
10:00 +19°C° 0 mm 4 m/S 751 mmHg 76%
11:00 +20°C° 0 mm 5 m/S 751 mmHg 73%
12:00 +19°C° 0 mm 6 m/S 751 mmHg 74%
13:00 +19°C° 0 mm 6 m/S 751 mmHg 74%
14:00 +18°C° 0 mm 7 m/S 751 mmHg 75%
15:00 +17°C° 0.1 mm 7 m/S 751 mmHg 77%
16:00 +17°C° 0.1 mm 7 m/S 751 mmHg 80%
17:00 +16°C° 0.1 mm 6 m/S 751 mmHg 83%
18:00 +16°C° 0.2 mm 6 m/S 751 mmHg 84%
19:00 +15°C° 0.2 mm 6 m/S 752 mmHg 85%
20:00 +15°C° 0.2 mm 6 m/S 752 mmHg 86%
21:00 +14°C° 0.2 mm 6 m/S 752 mmHg 86%
22:00 +14°C° 0.2 mm 6 m/S 752 mmHg 85%
23:00 +14°C° 0.2 mm 6 m/S 753 mmHg 85%

12 März, Freitag

Zeit Temperatur Niederschläge Wind Luftdruck Luftfeuchtigkeit
00:00 +14°C° 0.3 mm 6 m/S 753 mmHg 85%
01:00 +13°C° 0.3 mm 5 m/S 753 mmHg 85%
02:00 +13°C° 0.3 mm 5 m/S 753 mmHg 86%
03:00 +12°C° 0 mm 4 m/S 753 mmHg 83%
04:00 +12°C° 0 mm 3 m/S 753 mmHg 80%
05:00 +12°C° 0 mm 2 m/S 753 mmHg 78%
06:00 +14°C° 0 mm 2 m/S 754 mmHg 74%
07:00 +15°C° 0 mm 2 m/S 754 mmHg 69%
08:00 +16°C° 0 mm 2 m/S 755 mmHg 65%
09:00 +17°C° 0 mm 2 m/S 755 mmHg 61%
10:00 +18°C° 0 mm 3 m/S 755 mmHg 57%
11:00 +18°C° 0 mm 3 m/S 756 mmHg 53%
12:00 +18°C° 0 mm 4 m/S 755 mmHg 54%
13:00 +17°C° 0 mm 5 m/S 755 mmHg 56%
14:00 +17°C° 0 mm 6 m/S 755 mmHg 57%
15:00 +16°C° 0 mm 5 m/S 755 mmHg 58%
16:00 +15°C° 0 mm 5 m/S 755 mmHg 60%
17:00 +14°C° 0 mm 4 m/S 755 mmHg 61%
18:00 +13°C° 0 mm 4 m/S 756 mmHg 60%
19:00 +12°C° 0 mm 3 m/S 756 mmHg 60%
20:00 +11°C° 0 mm 3 m/S 756 mmHg 59%
21:00 +10°C° 0 mm 3 m/S 757 mmHg 60%
22:00 +10°C° 0 mm 2 m/S 757 mmHg 61%
23:00 +10°C° 0 mm 2 m/S 757 mmHg 62%

13 März, Samstag

Zeit Temperatur Niederschläge Wind Luftdruck Luftfeuchtigkeit
00:00 +10°C° 0 mm 2 m/S 757 mmHg 61%
01:00 +9°C° 0 mm 2 m/S 757 mmHg 61%
02:00 +10°C° 0 mm 1 m/S 756 mmHg 60%
03:00 +9°C° 0 mm 2 m/S 756 mmHg 58%
04:00 +9°C° 0 mm 2 m/S 756 mmHg 57%
05:00 +9°C° 0 mm 2 m/S 756 mmHg 56%
06:00 +10°C° 0 mm 2 m/S 757 mmHg 54%
07:00 +13°C° 0 mm 2 m/S 757 mmHg 53%
08:00 +15°C° 0 mm 1 m/S 757 mmHg 51%
09:00 +16°C° 0 mm 2 m/S 757 mmHg 48%
10:00 +18°C° 0 mm 2 m/S 757 mmHg 44%
11:00 +19°C° 0 mm 2 m/S 757 mmHg 41%
12:00 +20°C° 0 mm 3 m/S 756 mmHg 45%
13:00 +20°C° 0 mm 4 m/S 756 mmHg 48%
14:00 +20°C° 0 mm 4 m/S 755 mmHg 52%
15:00 +19°C° 0 mm 4 m/S 755 mmHg 58%
16:00 +18°C° 0 mm 4 m/S 755 mmHg 63%
17:00 +18°C° 0 mm 4 m/S 755 mmHg 69%
18:00 +15°C° 0 mm 4 m/S 755 mmHg 70%
19:00 +14°C° 0 mm 3 m/S 755 mmHg 70%
20:00 +13°C° 0 mm 3 m/S 755 mmHg 71%
21:00 +13°C° 0 mm 3 m/S 755 mmHg 66%
22:00 +13°C° 0 mm 3 m/S 755 mmHg 62%
23:00 +14°C° 0 mm 2 m/S 754 mmHg 58%
Mehr zeigen

Wir brauchen deine Erlaubnis

Meteoprog und unser Service Anbieter werden persönliche Daten aufbewahren, so wie Cookies, Geräte Bezeichnung oder ähnliche Technologien von deinem Gerät und Prozess, so wie Persönliche Daten Inhalte und Werbungen, genauso wie social Media und den Verkehr zu analysieren.

  • Aufbewahrung und/oder Zugang zu deiner Geräte Informationen.

    Cookies, Geräte Bezeichnung oder andere Informationen, können aufbewahrt oder Zugang zu deinem Gerät erhalten, für den Grund, der oben angegeben wird.

  • Personalisierte Werbung und Inhalte, Messungen, Einblick in das Publikum und Produkt Entwicklung.

    Werbungen und Inhalte können personalisiert werden, basierend auf ein Profil. Mehr Daten können besser personalisierte Werbungen und Inhalte hinzufügen. Werbung und Inhalte können gezeigt und gemessen werden. Einblicke über das Publikum, welche die Werbung gesehen haben und den Inhalt, können abgeleitet werden. So wie Daten können genutzt werden, um es zu verbessern oder die Benutzer Erfahrung zu verbessern das System und die Software.

Wenn du “Ich stimme zu” klickst, erlaubst du uns, die Cookies zu benutzen die Geräte Bezeichnung, den Web oder ähnliche Technologien zu benutzen. Deine Settings, können in deinem Gerät bei deinem Browser geändert werden.

Für den bestimmten Zweck, berechtigten Interessen beruhen darauf, mehr als auf den Inhalt. Du kannst mehr darüber in unseren Privaten und Cookie Politik lesen.